Flag for Russia Weather past 2 weeks in Penza, Russia

Now
59 °F

Clear.


Feels Like: 60 °F
Forecast: 43 / 70 °F
Wind: 3 mph from North

Location: Saratov / Tsentralny

Current Time: Jul 7, 2015 at 1:33:44 AM

Latest Report: Jul 7, 2015 at 1:00 AM


Visibility: 10 mi

Pressure: 29.89 "Hg

Humidity: 63%

Dew point: 46 °F

Location of PenzaLocation

Historic Weather in Penza — Graph

°F

Penza temperature yesterday

Maximum temperature yesterday: 86 °F (at 11:00 AM)
Minimum temperature yesterday: 64 °F (at 10:00 PM)
Average temperature yesterday: 77 °F

Past Weeks' High & Low Weather Summary

 TemperatureHumidityPressure
High95 °F (Jun 28, 1:00 PM)100% (Jun 29, 1:00 AM)30.18 "Hg (Jun 29, 1:00 AM)
Low55 °F (Jul 4, 2:00 AM)24% (Jun 27, 6:00 PM)29.59 "Hg (Jun 28, 2:00 AM)
Average77 °F56%29.86 "Hg
* Reported Midnight between Jun 21 and Jun 22 — Midnight between Jul 6 and Jul 7, Penza, Weather by CustomWeather, © 2015

Note: Actual official high and low records may vary slightly from our data, if they occured in-between our weather recording intervals... More about our weather records

Advertising

Penza weather history for previous 24 hours

 ConditionsComfort  
Time TempWeatherWind HumidityBarometerVisibility
12:00 AM
Tue, Jul 7
61 °FClear.8 mph59%29.86 "Hg10 mi
11:30 PM
Mon, Jul 6
64 °FClear.8 mph49%29.86 "Hg10 mi
11:00 PM64 °FClear.8 mph49%29.86 "Hg10 mi
10:30 PM64 °FClear.10 mph49%29.83 "Hg10 mi
10:00 PM64 °FClear.8 mph49%29.83 "Hg10 mi
9:30 PM68 °FClear.10 mph43%29.83 "Hg10 mi
9:00 PM68 °FSunny.13 mph43%29.83 "Hg10 mi
8:30 PM72 °FSunny.15 mph41%29.80 "Hg10 mi
8:00 PM72 °FSunny.8 mph41%29.80 "Hg10 mi
7:30 PM75 °FSunny.10 mph44%29.77 "Hg10 mi
7:00 PM75 °FSunny.10 mph44%29.77 "Hg10 mi
6:30 PM79 °FSunny.10 mph42%29.77 "Hg10 mi
6:00 PM79 °FSunny.13 mph42%29.77 "Hg10 mi
5:00 PM81 °FPartly sunny.8 mph37%29.74 "HgN/A
4:30 PM81 °FPartly sunny.10 mph39%29.74 "HgN/A
4:00 PM81 °FBroken clouds.10 mph39%29.74 "HgN/A
3:30 PM82 °FBroken clouds.10 mph35%29.74 "HgN/A
3:00 PM82 °FPartly sunny.13 mph35%29.74 "HgN/A
2:30 PM84 °FSunny.10 mph35%29.77 "Hg10 mi
2:00 PM84 °FSunny.13 mph35%29.77 "Hg10 mi
1:30 PM82 °FPartly sunny.10 mph42%29.77 "HgN/A
1:00 PM82 °FPartly sunny.10 mph42%29.77 "HgN/A
12:30 PM82 °FPartly sunny.10 mph45%29.77 "HgN/A
12:00 PM82 °FPartly sunny.10 mph45%29.77 "HgN/A
11:30 AM86 °FPartly sunny.10 mph38%29.77 "HgN/A
11:00 AM86 °FPartly sunny.10 mph38%29.77 "HgN/A
10:30 AM82 °FScattered clouds.13 mph45%29.77 "HgN/A
10:00 AM82 °FScattered clouds.13 mph45%29.77 "HgN/A
9:30 AM79 °FScattered clouds.10 mph54%29.77 "HgN/A
9:00 AM79 °FScattered clouds.8 mph54%29.77 "HgN/A
8:30 AM79 °FPassing clouds.8 mph54%29.80 "HgN/A
8:00 AM79 °FPassing clouds.10 mph54%29.80 "HgN/A
7:30 AM75 °FSunny.10 mph57%29.80 "Hg10 mi
7:00 AM75 °FSunny.13 mph57%29.80 "Hg10 mi
6:30 AM75 °FSunny.13 mph57%29.80 "Hg10 mi
6:00 AM75 °FSunny.13 mph57%29.80 "Hg10 mi
5:30 AM75 °FSunny.10 mph54%29.80 "Hg10 mi
5:00 AM75 °FSunny.13 mph54%29.80 "Hg10 mi
4:30 AM75 °FClear.8 mph54%29.80 "Hg10 mi
4:00 AM75 °FClear.10 mph54%29.80 "Hg10 mi
3:30 AM75 °FPassing clouds.10 mph54%29.80 "HgN/A
3:00 AM75 °FPassing clouds.13 mph54%29.80 "HgN/A
2:30 AM75 °FPassing clouds.13 mph54%29.80 "HgN/A
2:00 AM75 °FPassing clouds.15 mph54%29.80 "HgN/A
1:30 AM77 °FPassing clouds.15 mph54%29.80 "HgN/A
1:00 AM77 °FPassing clouds.13 mph54%29.80 "HgN/A
Weather by CustomWeather, © 2015

See weather overviewHow to use our weather pages